N179AL SCEL-SCIC

Flight info

Callsign N179AL
Flight time N/A
Altitude 19000
Route VFR DCT
Aircraft PC12/L-VGD/A

Departure

Time 2026-05-06 13:40
Airport Comodoro Arturo Merino Benítez International Airport (SCEL)

Arrival

Time N/A
Airport General Freire Airport (SCIC)
Time Latitude Longitude Altitude Speed Heading
2026-05-06 13:31 -33.39224 -70.79204 1561 ft 0 kts
2026-05-06 13:34 -33.39217 -70.79205 1561 ft 3 kts
2026-05-06 13:34 -33.39214 -70.79153 1561 ft 4 kts 146°
2026-05-06 13:35 -33.39299 -70.79160 1561 ft 17 kts 210°
2026-05-06 13:35 -33.39324 -70.79358 1561 ft 33 kts 270°
2026-05-06 13:35 -33.39332 -70.79551 1561 ft 20 kts 266°
2026-05-06 13:35 -33.39341 -70.79790 1561 ft 36 kts 265°
2026-05-06 13:36 -33.39305 -70.80024 1562 ft 21 kts 324°
2026-05-06 13:36 -33.39108 -70.80073 1563 ft 35 kts 337°
2026-05-06 13:36 -33.38870 -70.80117 1565 ft 35 kts
2026-05-06 13:36 -33.38585 -70.80100 1563 ft 47 kts
2026-05-06 13:37 -33.38226 -70.80111 1562 ft 52 kts 352°
2026-05-06 13:37 -33.37988 -70.80123 1562 ft 12 kts 352°
2026-05-06 13:37 -33.37983 -70.80124 1562 ft 0 kts 352°
2026-05-06 13:37 -33.37913 -70.80132 1562 ft 20 kts 356°
2026-05-06 13:38 -33.37721 -70.80137 1563 ft 36 kts 360°
2026-05-06 13:38 -33.37436 -70.80157 1563 ft 41 kts
2026-05-06 13:38 -33.37218 -70.80169 1563 ft 23 kts 357°
2026-05-06 13:38 -33.37108 -70.80265 1567 ft 21 kts 265°
2026-05-06 13:39 -33.37198 -70.80365 1570 ft 14 kts 183°
2026-05-06 13:39 -33.37440 -70.80365 1571 ft 68 kts 179°
2026-05-06 13:39 -33.38139 -70.80319 1583 ft 127 kts 171°
2026-05-06 13:39 -33.39128 -70.80255 1943 ft 157 kts 181°
2026-05-06 13:40 -33.40267 -70.80224 2563 ft 171 kts 178°
2026-05-06 13:40 -33.41484 -70.80000 3197 ft 184 kts 162°
2026-05-06 13:40 -33.42592 -70.79172 3831 ft 191 kts 141°
2026-05-06 13:40 -33.43694 -70.78190 4366 ft 203 kts 146°
2026-05-06 13:41 -33.44917 -70.77314 4977 ft 210 kts 152°
2026-05-06 13:41 -33.46266 -70.76586 5505 ft 215 kts 159°
2026-05-06 13:41 -33.47714 -70.76037 5966 ft 224 kts 166°
2026-05-06 13:41 -33.49270 -70.75837 6419 ft 225 kts 181°
2026-05-06 13:42 -33.50834 -70.75858 6845 ft 222 kts 182°
2026-05-06 13:42 -33.52345 -70.75915 7356 ft 221 kts 183°
2026-05-06 13:42 -33.53875 -70.75990 7880 ft 226 kts 184°
2026-05-06 13:42 -33.55532 -70.76099 7675 ft 243 kts 184°
2026-05-06 13:43 -33.57188 -70.76225 7599 ft 236 kts 185°
2026-05-06 13:43 -33.58816 -70.76358 7593 ft 232 kts 185°
2026-05-06 13:43 -33.60458 -70.76468 7540 ft 238 kts 184°
2026-05-06 13:43 -33.62128 -70.76583 7555 ft 246 kts 186°
2026-05-06 13:44 -33.63862 -70.76755 7555 ft 253 kts 186°
2026-05-06 13:44 -33.65623 -70.76929 7560 ft 256 kts 186°
2026-05-06 13:44 -33.67364 -70.77100 7508 ft 256 kts 186°
2026-05-06 13:44 -33.69169 -70.77228 7274 ft 262 kts 179°
2026-05-06 13:45 -33.70989 -70.76991 7022 ft 263 kts 172°
2026-05-06 13:45 -33.74588 -70.76257 6531 ft 261 kts 171°
2026-05-06 13:45 -33.76375 -70.75881 6283 ft 260 kts 171°
2026-05-06 13:46 -33.78155 -70.75505 6034 ft 259 kts 171°
2026-05-06 13:46 -33.79923 -70.75131 5784 ft 258 kts 171°
2026-05-06 13:46 -33.81683 -70.74770 5542 ft 256 kts 174°
2026-05-06 13:46 -33.83417 -70.74661 5497 ft 251 kts 180°
2026-05-06 13:47 -33.85160 -70.74645 5500 ft 250 kts 180°
2026-05-06 13:47 -33.86904 -70.74642 5497 ft 251 kts 181°
2026-05-06 13:47 -33.88646 -70.74643 5494 ft 250 kts 181°
2026-05-06 13:47 -33.90387 -70.74644 5489 ft 250 kts 181°
2026-05-06 13:48 -33.92129 -70.74643 5491 ft 250 kts 180°
2026-05-06 13:48 -33.93873 -70.74639 5487 ft 250 kts 181°
2026-05-06 13:48 -33.95589 -70.74507 5585 ft 245 kts 168°
2026-05-06 13:48 -33.97130 -70.73713 5662 ft 238 kts 154°
2026-05-06 13:49 -33.98548 -70.72854 5566 ft 222 kts 154°
2026-05-06 13:49 -33.99882 -70.72046 5253 ft 204 kts 154°
2026-05-06 13:49 -34.01093 -70.71334 4816 ft 185 kts 158°
2026-05-06 13:49 -34.02306 -70.70979 4700 ft 174 kts 175°
2026-05-06 13:50 -34.03504 -70.70854 4739 ft 178 kts 176°
2026-05-06 13:50 -34.04704 -70.70763 4494 ft 167 kts 179°
2026-05-06 13:50 -34.05837 -70.70909 4195 ft 156 kts 194°
2026-05-06 13:50 -34.06828 -70.71219 3812 ft 143 kts 197°
2026-05-06 13:51 -34.07769 -70.71568 3436 ft 139 kts 198°
2026-05-06 13:51 -34.08681 -70.71916 3218 ft 137 kts 197°
2026-05-06 13:51 -34.09571 -70.72259 3164 ft 132 kts 197°
2026-05-06 13:51 -34.10477 -70.72562 3212 ft 139 kts 193°
2026-05-06 13:52 -34.11413 -70.72831 3243 ft 139 kts 194°
2026-05-06 13:52 -34.12355 -70.73247 3243 ft 138 kts 211°
2026-05-06 13:52 -34.13116 -70.73865 3098 ft 125 kts 214°
2026-05-06 13:52 -34.13809 -70.74437 2927 ft 112 kts 214°
2026-05-06 13:53 -34.14429 -70.74970 2649 ft 110 kts 217°
2026-05-06 13:53 -34.15044 -70.75573 2371 ft 117 kts 216°
2026-05-06 13:53 -34.15674 -70.76137 2154 ft 109 kts 218°
2026-05-06 13:53 -34.16251 -70.76636 1888 ft 100 kts 216°
2026-05-06 13:54 -34.16813 -70.77133 1605 ft 98 kts 217°
2026-05-06 13:54 -34.17303 -70.77559 1605 ft 75 kts 212°
2026-05-06 13:54 -34.17497 -70.77729 1605 ft 2 kts 255°
2026-05-06 13:54 -34.17494 -70.77729 1605 ft 5 kts 22°
2026-05-06 13:55 -34.17389 -70.77638 1605 ft 32 kts 37°
2026-05-06 13:55 -34.17173 -70.77448 1600 ft 44 kts 36°
2026-05-06 13:55 -34.16896 -70.77203 1597 ft 43 kts 41°
2026-05-06 13:55 -34.16830 -70.77098 1598 ft 3 kts 126°
2026-05-06 13:56 -34.16814 -70.77058 1597 ft 10 kts 75°
2026-05-06 13:56 -34.16831 -70.77060 1598 ft 12 kts 201°
2026-05-06 13:56 -34.16857 -70.77078 1598 ft 0 kts 219°
2026-05-06 13:57 -34.16856 -70.77078 1598 ft 0 kts 201°
2026-05-06 13:57 -34.16840 -70.77111 1598 ft 15 kts 300°
2026-05-06 13:57 -34.16899 -70.77206 1597 ft 44 kts 216°
2026-05-06 13:58 -34.17339 -70.77570 1701 ft 90 kts 214°
2026-05-06 13:58 -34.17830 -70.77962 2227 ft 89 kts 216°
2026-05-06 13:58 -34.18599 -70.77944 2194 ft 144 kts 158°
2026-05-06 13:58 -34.19089 -70.78574 2173 ft 186 kts 342°
2026-05-06 13:59 -34.17747 -70.77973 1664 ft 224 kts 36°
2026-05-06 13:59 -34.16522 -70.76908 2231 ft 131 kts 32°
2026-05-06 13:59 -34.16191 -70.76774 4321 ft 75 kts
2026-05-06 13:59 -34.15337 -70.76607 4052 ft 146 kts
2026-05-06 14:00 -34.15013 -70.75848 3415 ft 164 kts 149°
2026-05-06 14:00 -34.15961 -70.76068 2765 ft 236 kts 244°
2026-05-06 14:00 -34.17068 -70.77383 1663 ft 252 kts 212°
2026-05-06 14:00 -34.18430 -70.78557 1648 ft 227 kts 219°
2026-05-06 14:01 -34.19706 -70.79755 1599 ft 234 kts 217°
2026-05-06 14:01 -34.20402 -70.80429 3132 ft 90 kts 25°
2026-05-06 14:01 -34.19511 -70.80158 2666 ft 186 kts 38°
2026-05-06 14:01 -34.18704 -70.78997 2457 ft 176 kts 48°
2026-05-06 14:02 -34.17795 -70.78088 2303 ft 166 kts 35°
2026-05-06 14:02 -34.16734 -70.77868 2024 ft 161 kts 347°
2026-05-06 14:02 -34.15776 -70.77685 1929 ft 130 kts 53°
2026-05-06 14:02 -34.15996 -70.76927 1707 ft 110 kts 179°
2026-05-06 14:03 -34.16474 -70.77154 1595 ft 0 kts 214°
2026-05-06 14:03 -34.16475 -70.77155 1595 ft 0 kts 213°